Location: Newark
(46.1292°N, 1.0086°W)
Time: 17:26:26
(UTC+00:00)

Vanguard 3 - Pass Details

Date: 20 November 2019
Orbit: 507 x 3263 km, 33.3° (Epoch: 05 December)

Event Time Altitude Azimuth Distance (km) Brightness Sun altitude
Rises 17:43:26 0° 271° (W) 7,216 13.6 -13.0°
Reaches altitude 10° 17:48:52 10° 265° (W) 6,079 13.0 -14.0°
Maximum altitude 18:05:09 42° 204° (SSW) 3,255 10.4 -16.7°
Drops below altitude 10° 18:16:01 10° 139° (SE) 4,109 10.4 -18.6°
Enters shadow 18:18:30 - 133° (SE) 4,663 10.7 -19.0°
Sets 18:18:55 0° 132° (SE) 4,766 - -19.1°
